Location: Artiguedieu
(43.5000°N, 0.5454°E)
Time: 11:34:41
(UTC+00:00)

NOSS 3-1 (C) - Pass Details

Date: 06 December 2020
Orbit: 734 x 1475 km, 63.4° (Epoch: 22 January)

Event Time Altitude Azimuth Distance (km) Brightness Sun altitude
Exits shadow 06:10:06 - 325° (NW) 3,285 5.8 -11.7°
Reaches altitude 10° 06:10:45 10° 326° (NW) 3,067 5.6 -11.6°
Maximum altitude 06:18:17 73° 52° (NE) 1,360 4.3 -10.3°
Drops below altitude 10° 06:27:00 10° 136° (SE) 3,525 7.6 -8.8°
Sets 06:30:06 0° 139° (SE) 4,544 8.3 -8.3°
